This is the latest recevied weather packets stored in our database for station/object PD2BVG. If no packets are shown the sender has not sent any weather packets the latest 1 day(s).
| Time | Temp. | Humidity | Pressure | Rain* | Wind** | Luminosity | Snow |
|---|---|---|---|---|---|---|---|
| 1778028014 | 10° C | 80% | 1010.4 hPa | 0 mm | 3.13 m/s, 0° | 0 W/m² | - |
| 1778027953 | 10° C | 80% | 1010.4 hPa | 0 mm | 2.24 m/s, 0° | 0 W/m² | - |
| 1778027894 | 10° C | 80% | 1010.5 hPa | 0 mm | 2.68 m/s, 0° | 0 W/m² | - |
| 1778027832 | 10° C | 80% | 1010.5 hPa | 0 mm | 4.02 m/s, 348° | 0 W/m² | - |
| 1778027772 | 10° C | 80% | 1010.5 hPa | 0 mm | 4.02 m/s, 0° | 0 W/m² | - |
| 1778027714 | 10° C | 80% | 1010.4 hPa | 0 mm | 3.13 m/s, 343° | 0 W/m² | - |
| 1778027653 | 10° C | 80% | 1010.5 hPa | 0 mm | 3.13 m/s, 28° | 0 W/m² | - |
| 1778027590 | 10° C | 80% | 1010.4 hPa | 0 mm | 3.58 m/s, 351° | 0 W/m² | - |
| 1778027531 | 10° C | 80% | 1010.5 hPa | 0 mm | 4.02 m/s, 353° | 0 W/m² | - |
| 1778027469 | 10° C | 81% | 1010.5 hPa | 0 mm | 4.02 m/s, 357° | 0 W/m² | - |
| 1778027408 | 10° C | 81% | 1010.5 hPa | 0 mm | 4.02 m/s, 351° | 0 W/m² | - |
| 1778027347 | 10° C | 81% | 1010.5 hPa | 0 mm | 4.02 m/s, 358° | 0 W/m² | - |
| 1778027286 | 10° C | 81% | 1010.6 hPa | 0 mm | 4.02 m/s, 0° | 0 W/m² | - |
| 1778027226 | 10° C | 81% | 1010.7 hPa | 0 mm | 4.02 m/s, 357° | 0 W/m² | - |
| 1778027163 | 10° C | 81% | 1010.6 hPa | 0 mm | 3.13 m/s, 338° | 0 W/m² | - |
| 1778027102 | 10° C | 81% | 1010.6 hPa | 0 mm | 2.68 m/s, 351° | 0 W/m² | - |
| 1778027042 | 10° C | 81% | 1010.7 hPa | 0 mm | 2.68 m/s, 6° | 0 W/m² | - |
| 1778026981 | 10° C | 81% | 1010.6 hPa | 0 mm | 2.24 m/s, 0° | 0 W/m² | - |
| 1778026921 | 10° C | 81% | 1010.6 hPa | 0 mm | 2.24 m/s, 348° | 0 W/m² | - |
| 1778026861 | 10° C | 81% | 1010.7 hPa | 0 mm | 2.68 m/s, 330° | 0 W/m² | - |
| 1778026802 | 10° C | 81% | 1010.6 hPa | 0 mm | 2.68 m/s, 319° | 0 W/m² | - |
| 1778026742 | 10° C | 81% | 1010.6 hPa | 0 mm | 2.68 m/s, 0° | 0 W/m² | - |
| 1778026682 | 10° C | 81% | 1010.6 hPa | 0 mm | 2.68 m/s, 312° | 0 W/m² | - |
| 1778026621 | 10° C | 81% | 1010.6 hPa | 0 mm | 2.68 m/s, 343° | 0 W/m² | - |
| 1778026561 | 10° C | 81% | 1010.6 hPa | 0 mm | 3.13 m/s, 345° | 0 W/m² | - |
* Rain latest hour (hover to see other rain measurements)
** Current wind speed in m/s (hover to see current wind gust speed)